Location: Heilbronn
(49.1548°N, 9.2780°E)
Time: 08:17:44
(UTC+01:00)

ISS - Visible Passes

Search period start: 17 February 2019 00:00
Search period end: 27 February 2019 00:00
Orbit: 403 x 411 km, 51.6° (Epoch: 17 February)

Date Brightness Start Highest point End Pass type
(mag) Time Alt. Az. Time Alt. Az. Time Alt. Az.
23 Feb -1.0 06:33:55 10° S 06:36:14 18° SE 06:38:34 10° E visible
24 Feb -0.7 05:43:57 10° SSE 05:44:58 11° SE 05:46:00 10° ESE visible
25 Feb -2.3 06:26:30 10° SW 06:29:30 34° SSE 06:32:31 10° E visible
26 Feb -1.6 05:35:46 11° SSW 05:38:08 22° SE 05:40:46 10° E visible
